Flag for Germany

Past Weather in Cologne, North Rhine-Westphalia, Germany — Yesterday and Last 2 Weeks

Now
54 °F

Passing clouds.


Feels Like: 54 °F
Forecast: 73 / 51 °F
Wind: 2 mph from North

Location: Koeln / Bonn

Current Time: Jul 11, 2020 at 3:33:10 am

Latest Report: Jul 11, 2020 at 2:50 am


Visibility: N/A

Pressure: 30.15 "Hg

Humidity: 94%

Dew Point: 52 °F

Location of CologneLocation

Past Weather in Cologne — Graph

°F

Cologne Temperature Yesterday

Maximum temperature yesterday: 70 °F (at 12:20 pm)
Minimum temperature yesterday: 54 °F (at 11:20 pm)
Average temperature yesterday: 63 °F

High & Low Weather Summary for the Past Weeks

 TemperatureHumidityPressure
High88 °F (Jun 26, 4:20 pm)100% (Jul 3, 12:20 am)30.18 "Hg (Jul 3, 12:20 am)
Low46 °F (Jul 7, 6:20 am)33% (Jun 26, 4:20 pm)29.74 "Hg (Jul 1, 12:50 pm)
Average65 °F70%29.94 "Hg
* Reported Jun 26 2:20 am — Jul 11 2:20 am, Cologne. Weather by CustomWeather, © 2020

Note: Actual official high and low records may vary slightly from our data, if they occured in-between our weather recording intervals... More about our weather records

Cologne Weather History for the Previous 24 Hours

Scroll right to see more
 ConditionsComfort  
Time TempWeatherWind HumidityBarometerVisibility
2:20 am
Sat, Jul 11
54 °FPassing clouds.1 mph94%30.15 "HgN/A
1:50 am54 °FPassing clouds.3 mph94%30.12 "HgN/A
1:20 am54 °FPassing clouds.5 mph94%30.12 "HgN/A
12:50 am54 °FPassing clouds.3 mph94%30.12 "HgN/A
12:20 am52 °FPassing clouds.No wind94%30.12 "HgN/A
11:50 pm
Fri, Jul 10
54 °FPassing clouds.3 mph88%30.09 "HgN/A
11:20 pm54 °FPassing clouds.3 mph88%30.09 "HgN/A
10:50 pm55 °FPassing clouds.2 mph88%30.09 "HgN/A
10:20 pm55 °FPassing clouds.5 mph88%30.07 "HgN/A
9:50 pm57 °FPassing clouds.6 mph77%30.07 "HgN/A
9:20 pm59 °FPassing clouds.6 mph72%30.07 "HgN/A
8:50 pm61 °FPassing clouds.7 mph68%30.04 "HgN/A
8:20 pm61 °FScattered clouds.7 mph72%30.04 "HgN/A
7:50 pm64 °FScattered clouds.9 mph64%30.04 "HgN/A
7:20 pm63 °FScattered clouds.12 mph68%30.04 "HgN/A
6:50 pm64 °FScattered clouds.15 mph64%30.04 "HgN/A
6:20 pm63 °FScattered clouds.10 mph73%30.01 "HgN/A
5:50 pm63 °FScattered clouds.12 mph77%30.01 "HgN/A
5:20 pm63 °FSprinkles. Scattered clouds.15 mph77%30.01 "HgN/A
4:50 pm66 °FSprinkles. Scattered clouds.16 mph64%29.98 "HgN/A
4:20 pm68 °FPassing clouds.15 mph60%29.98 "HgN/A
3:20 pm70 °FScattered clouds.14 mph57%29.95 "HgN/A
2:50 pm66 °FScattered clouds.16 mph64%29.95 "HgN/A
2:20 pm64 °FScattered clouds.15 mph73%29.95 "HgN/A
1:50 pm66 °FScattered clouds.23 mph73%29.92 "HgN/A
1:20 pm68 °FScattered clouds.15 mph69%29.89 "HgN/A
12:50 pm66 °FRain showers. Scattered clouds.22 mph73%29.89 "HgN/A
12:20 pm70 °FScattered showers. Scattered clouds.16 mph69%29.86 "HgN/A
11:50 am66 °FScattered clouds.20 mph73%29.86 "HgN/A
11:20 am64 °FSprinkles. Partly sunny.13 mph83%29.86 "HgN/A
10:50 am66 °FScattered showers. Partly sunny.18 mph73%29.83 "HgN/A
10:20 am64 °FBroken clouds.18 mph78%29.83 "HgN/A
9:50 am64 °FBroken clouds.16 mph78%29.83 "HgN/A
9:20 am64 °FBroken clouds.15 mph78%29.83 "HgN/A
8:50 am64 °FBroken clouds.16 mph78%29.80 "HgN/A
8:20 am64 °FPartly sunny.14 mph78%29.80 "HgN/A
7:50 am66 °FPassing clouds.8 mph78%29.80 "HgN/A
7:20 am64 °FPassing clouds.6 mph83%29.80 "HgN/A
6:50 am64 °FPassing clouds.6 mph83%29.80 "HgN/A
6:20 am63 °FScattered clouds.5 mph88%29.80 "HgN/A
5:50 am61 °FPartly sunny.2 mph94%29.80 "HgN/A
5:20 am61 °FPassing clouds.3 mph94%29.80 "HgN/A
4:50 am61 °FPassing clouds.2 mph94%29.80 "HgN/A
4:20 am61 °FClear.1 mph94%29.80 "Hg10 mi
3:50 am63 °FClear.3 mph88%29.80 "Hg10 mi
3:20 am63 °FPassing clouds.3 mph88%29.80 "HgN/A
Weather by CustomWeather, © 2020

See weather overview